STARLINK-5622, 55358

Orbit data source: Space-Track

STARLINK-5622, 55358 is a payload satellite owned by SpaceX/Seattle (US) in LEO that was launched on Thu, 26 Jan 2023 UTC via an FALCON 9 launch vehicle from the Air Force Eastern Test Range (AFETR). Payload-class satellites include a variety of spacecraft equipped with specific instruments for various scientific and technological missions. These include communications satellites like Starlink; space stations such as the ISS; scientific satellites like the Hubble; Earth observation satellites from companies like Planet Labs, Umbra, and HawkEye 360; GPS; miniature CubeSats for education and research; and military/defense satellites.

Loading next visibility...
Identifier
55358, 2023-013AD
Orbit
LEO
Country
Flag of USUS
Related business
Manufacturer
SpaceX/Seattle
Mission
Operational Commercial Communications
Bus & Motor
STARLINK, Unknown motor
Mass
305 kg wet, ~290 kg dry
Launch date (UTC)
2023-01-26 (3 years ago)
Launch vehicle
FALCON 9
Launch site
Air Force Eastern Test Range (AFETR)
Object type
Payload
Rocket body
Debris
Shape & HBR
Box + 1 Pan, 10.1 m
Radar Cross Section
13.562 m², Large (>1 m²)

Expand to show TLE details & history
Last TLE update: 19 hours ago

TLE from 19 hours ago
0 STARLINK-5622
1 55358U 23013AD  25349.20369148  .00000909  00000-0  82359-4 0  9990
2 55358  43.0049  39.1352 0001201 261.8862  98.1844 15.02535931159001
Epoch: 2025-12-15T04:53Z
TLE epoch observation values (Epoch: 2025-12-15T04:53:18.943Z)
Latitude
-0.00005°
Longitude
-118.2994°
Altitude
558.977 km
Speed
7.584 km/s
True Right ascension
02h 36m 32s
True Declination
0° 00' 00"
Sunlit
Object was in full shadow at epoch
Visualization orbit readout
Latitude
Unknown
Longitude
Unknown
Altitude
Unknown
Speed
Unknown
Apparent Right ascension
Unknown
Apparent Declination
Unknown
Sunlit
N/A
Visualization observer readout
Local Sidereal Time
22:51:52
Azimuth
Unknown
Elevation
Unknown
Doppler factor
Unknown
Orbital elements
Apogee altitude
561.836 km
Perigee altitude
560.169 km
Semi-major axis
6,939.14 km
Eccentricity
0.00012
Inclination
43.0049°
RAAN
39.1352°
Arg. of periapsis
261.8862°
True anomaly
98.19802°
Mean anomaly
98.1844°
Eccentric anomaly
98.19121°
Mean motion
3.75478 °/min
Orbital period
95.88 mins
BSTAR
0.000082359
Loading maneuver chart data...
Computing Atmospheric mass density...
Loading historical data...
Loading historical data...
Loading historical data...
Loading historical data...
Loading historical data...
Loading historical data...
Loading historical data...

Documentation

Showing up to 5 results
|